Flag for Norway Weather past 2 weeks in Kopervik, Norway

Now
48 °F

Mostly cloudy.


Feels Like: 42 °F
Forecast: 47 / 51 °F
Wind: 17 mph from West

Location: Haugesund / Karmoy

Current Time: Jun 3, 2015 at 5:45:15 AM

Latest Report: Jun 3, 2015 at 4:50 AM


Visibility: N/A

Pressure: 29.39 "Hg

Humidity: 82%

Dew point: 43 °F

Location of KopervikLocation

Historic Weather in Kopervik — Graph

°F

Kopervik temperature yesterday

Maximum temperature yesterday: 50 °F (at 5:20 PM)
Minimum temperature yesterday: 45 °F (at 6:20 AM)
Average temperature yesterday: 47 °F

Past Weeks' High & Low Weather Summary

 TemperatureHumidityPressure
High57 °F (May 20, 3:20 PM)100% (May 21, 5:50 AM)30.18 "Hg (May 21, 5:50 AM)
Low37 °F (May 24, 12:50 AM)44% (May 20, 3:20 PM)29.12 "Hg (Jun 2, 2:20 PM)
Average48 °F81%29.72 "Hg
* Reported May 19 4:20 AM — Jun 3 4:20 AM, Kopervik, Weather by CustomWeather, © 2015

Note: Actual official high and low records may vary slightly from our data, if they occured in-between our weather recording intervals... More about our weather records

Advertising

Kopervik weather history for previous 24 hours

 ConditionsComfort  
Time TempWeatherWind HumidityBarometerVisibility
4:20 AM
Wed, Jun 3
48 °FPassing clouds.17 mph82%29.36 "HgN/A
3:50 AM48 °FPassing clouds.21 mph82%29.33 "HgN/A
3:20 AM48 °FMostly cloudy.20 mph82%29.33 "HgN/A
2:50 AM48 °FOvercast.18 mph82%29.30 "HgN/A
2:20 AM48 °FOvercast.18 mph82%29.27 "HgN/A
1:50 AM48 °FPassing clouds.21 mph82%29.27 "HgN/A
1:20 AM48 °FPassing clouds.20 mph82%29.27 "HgN/A
12:50 AM46 °FPassing clouds.18 mph87%29.24 "HgN/A
12:20 AM46 °FPassing clouds.18 mph87%29.21 "HgN/A
11:50 PM
Tue, Jun 2
46 °FPassing clouds.20 mph87%29.21 "HgN/A
11:20 PM48 °FLight rain. Mostly cloudy.25 mph94%29.18 "Hg5 mi
10:50 PM48 °FLight rain. Partly sunny.25 mph94%29.18 "Hg4 mi
10:20 PM48 °FLight rain. Partly sunny.25 mph94%29.18 "Hg5 mi
9:50 PM50 °FDrizzle. Partly sunny.25 mph88%29.18 "Hg4 mi
9:20 PM48 °FSprinkles. Partly sunny.26 mph94%29.15 "Hg5 mi
8:50 PM48 °FRain. Partly sunny.28 mph94%29.15 "Hg5 mi
8:20 PM48 °FLight rain. Partly sunny.23 mph94%29.15 "Hg5 mi
7:50 PM48 °FScattered showers. Partly sunny.24 mph87%29.15 "Hg6 mi
7:20 PM48 °FRain showers. Partly sunny.22 mph87%29.15 "Hg6 mi
6:50 PM48 °FRain showers. Broken clouds.21 mph87%29.15 "HgN/A
6:20 PM48 °FScattered showers. Broken clouds.18 mph82%29.15 "HgN/A
5:50 PM48 °FBroken clouds.22 mph82%29.15 "HgN/A
5:20 PM50 °FScattered showers. Broken clouds.26 mph76%29.15 "HgN/A
4:50 PM48 °FBroken clouds.28 mph76%29.15 "HgN/A
4:20 PM48 °FScattered showers. Broken clouds.23 mph87%29.15 "HgN/A
3:50 PM45 °FRain. Broken clouds.23 mph87%29.12 "Hg4 mi
3:20 PM48 °FLight rain. Broken clouds.21 mph87%29.12 "HgN/A
2:50 PM48 °FLight rain. Broken clouds.22 mph87%29.12 "Hg6 mi
2:20 PM48 °FRain. Broken clouds.21 mph87%29.12 "Hg4 mi
1:50 PM46 °FRain. Partly sunny.16 mph87%29.15 "Hg4 mi
1:20 PM48 °FSprinkles. Broken clouds.20 mph82%29.15 "HgN/A
11:50 AM48 °FBroken clouds.20 mph82%29.15 "HgN/A
11:20 AM48 °FBroken clouds.22 mph82%29.15 "HgN/A
10:50 AM46 °FBroken clouds.15 mph87%29.15 "HgN/A
9:50 AM45 °FRain. Partly sunny.22 mph87%29.18 "Hg3 mi
9:20 AM45 °FLight rain. Partly sunny.30 mph87%29.15 "Hg5 mi
8:50 AM45 °FLight rain. Broken clouds.35 mph87%29.18 "Hg4 mi
8:20 AM45 °FRain. Partly sunny.31 mph87%29.21 "Hg4 mi
7:50 AM45 °FLight rain. Partly sunny.28 mph87%29.24 "Hg4 mi
7:20 AM45 °FRain. Partly sunny.28 mph87%29.27 "Hg4 mi
6:50 AM45 °FRain. Broken clouds.29 mph87%29.30 "Hg5 mi
6:20 AM45 °FSprinkles. Broken clouds.28 mph87%29.33 "HgN/A
5:20 AM46 °FPassing clouds.29 mph76%29.39 "HgN/A
Weather by CustomWeather, © 2015

See weather overviewHow to use our weather pages